This demonstration page uses our WeatherBlox Daily Observations layout. Learn more.

Hourly Observations for September 25, 2015

Temp ( °F °C ) Dew Point ( °F °C ) Humidity (%) Winds ( mph kmh ) Pressure ( in mb ) Visibility ( mi km ) Precip ( " mm )
12:15 am 00:15 Cloudy 61 16.2 59 15 93 93 NW 6 9 30.12 1020 10 16.0934 0 0
12:35 am 00:35 Cloudy 62 16.6 60 15.3 92 92 NW 6 9 30.12 1020 10 16.0934 0 0
12:55 am 00:55 Cloudy 62 16.7 60 15.3 92 92 WNW 7 11 30.12 1020 10 16.0934 0 0
1:15 am 01:15 Cloudy 63 17 60 15.5 91 91 NW 7 11 30.12 1020 10 16.0934 0 0
1:35 am 01:35 Cloudy 63 17.1 60 15.5 90 90 WNW 6 9 30.12 1020 10 16.0934 0 0
1:55 am 01:55 Cloudy 63 17.2 60 15.6 90 90 NW 7 11 30.12 1020 10 16.0934 0 0
2:15 am 02:15 Cloudy 63 17.3 60 15.6 90 90 WNW 7 11 30.12 1020 10 16.0934 0 0
2:35 am 02:35 Cloudy 64 17.5 60 15.5 88 88 NW 6 9 30.09 1019 10 16.0934 0 0
2:55 am 02:55 Cloudy 64 17.5 59 15.2 86 86 NW 7 11 30.09 1019 10 16.0934 0 0
3:15 am 03:15 Cloudy 64 17.5 59 15.1 86 86 NW 6 9 30.09 1019 10 16.0934 0 0
3:35 am 03:35 Cloudy 63 17.3 59 15.1 87 87 NW 8 13 30.09 1019 10 16.0934 0 0
3:55 am 03:55 Cloudy 64 17.5 59 15.1 86 86 NW 8 13 30.06 1018 10 16.0934 0 0
4:15 am 04:15 Cloudy 64 17.5 59 15.1 86 86 NW 7 11 30.06 1018 10 16.0934 0 0
4:35 am 04:35 Cloudy 64 17.5 59 15.1 86 86 NW 9 15 30.06 1018 10 16.0934 0 0
4:55 am 04:55 Cloudy 64 17.5 59 15.1 86 86 NW 9 15 30.06 1018 10 16.0934 0 0
5:15 am 05:15 Cloudy with Rain 63 17 59 15.1 89 89 NW 8 13 30.09 1019 4 6.43736 0 0
5:35 am 05:35 Cloudy with Rain 62 16.5 59 15.2 92 92 NW 9 15 30.09 1019 3 4.82802 0 0
5:55 am 05:55 Cloudy 62 16.5 60 15.3 93 93 NW 8 13 30.09 1019 7 11.26538 0 0
6:15 am 06:15 Cloudy with Mist and Fog 62 16.5 60 15.5 94 94 NW 13 20 30.09 1019 5 8.0467 0 0
6:35 am 06:35 Cloudy with Mist and Fog 62 16.5 60 15.5 94 94 NW 10 17 30.09 1019 5 8.0467 0 0
6:55 am 06:55 Cloudy 62 16.5 60 15.5 94 94 NW 9 15 30.09 1019 7 11.26538 0 0
7:15 am 07:15 Cloudy with Mist and Fog 62 16.5 60 15.5 94 94 NW 9 15 30.09 1019 5 8.0467 0 0
7:35 am 07:35 Cloudy with Mist and Fog 62 16.5 60 15.5 94 94 NW 9 15 30.09 1019 5 8.0467 0 0
7:55 am 07:55 Cloudy with Mist and Fog 62 16.5 60 15.5 94 94 NW 10 17 30.09 1019 2.5 4.02335 0 0
8:15 am 08:15 Cloudy with Mist and Fog 62 16.5 60 15.6 94 94 NW 9 15 30.09 1019 3 4.82802 0 0
8:35 am 08:35 Cloudy with Rain 62 16.5 60 15.6 94 94 NW 9 15 30.12 1020 1.75 2.816345 0 0
8:55 am 08:55 Cloudy with Drizzle 62 16.6 60 15.8 95 95 NW 10 17 30.09 1019 1.5 2.41401 0.01 0.254
9:15 am 09:15 Cloudy with Drizzle 62 16.7 61 16 96 96 NW 8 13 30.12 1020 1.75 2.816345 0.02 0.508
9:35 am 09:35 Cloudy with Light Drizzle 62 16.8 61 16 95 95 NNW 9 15 30.12 1020 1.75 2.816345 0.02 0.508
9:55 am 09:55 Cloudy with Light Drizzle 63 17 61 16.1 94 94 NNW 10 17 30.12 1020 2.5 4.02335 0.02 0.508
10:15 am 10:15 Cloudy with Mist and Fog 63 17 61 16.1 94 94 NNW 12 19 30.12 1020 3 4.82802 0 0
10:35 am 10:35 Cloudy with Mist and Fog 63 17.1 61 16.2 94 94 NNW 12 19 30.12 1020 2.5 4.02335 0.01 0.254
10:55 am 10:55 Cloudy with Light Drizzle 63 17.2 61 16.3 94 94 NNW 8 13 30.12 1020 1.75 2.816345 0.01 0.254
11:15 am 11:15 Cloudy with Rain 63 17.3 62 16.5 95 95 N 12 19 30.12 1020 3 4.82802 0.01 0.254
11:35 am 11:35 Cloudy 64 17.8 62 16.8 94 94 N 9 15 30.09 1019 10 16.0934 0.01 0.254
11:55 am 11:55 Cloudy 64 18 62 16.7 92 92 N 7 11 30.09 1019 10 16.0934 0.01 0.254
12:15 pm 12:15 Cloudy 65 18.2 63 17 93 93 N 9 15 30.09 1019 10 16.0934 0 0
12:35 pm 12:35 Cloudy 65 18.2 62 16.9 92 92 N 10 17 30.09 1019 10 16.0934 0 0
12:55 pm 12:55 Cloudy 65 18.5 63 17 91 91 N 8 13 30.09 1019 10 16.0934 0 0
1:15 pm 13:15 Cloudy 66 18.8 62 16.8 88 88 N 8 13 30.09 1019 10 16.0934 0 0
1:35 pm 13:35 Cloudy 66 19.1 62 16.6 86 86 NNE 9 15 30.09 1019 10 16.0934 0 0
1:55 pm 13:55 Cloudy 68 20.2 62 16.9 81 81 NNE 12 19 30.09 1019 10 16.0934 0 0
2:15 pm 14:15 Cloudy 69 20.5 61 16.2 76 76 NE 10 17 30.06 1018 10 16.0934 0 0
2:35 pm 14:35 Cloudy 69 20.5 61 16.1 76 76 ENE 13 20 30.03 1017 10 16.0934 0 0
2:55 pm 14:55 Cloudy with Rain 67 19.2 62 16.7 86 86 ENE 9 15 30.06 1018 10 16.0934 0 0
3:15 pm 15:15 Cloudy 68 20.2 62 16.9 81 81 NNE 7 11 30.06 1018 10 16.0934 0 0
3:35 pm 15:35 Cloudy 70 21.2 61 16.3 74 74 NNE 8 13 30.03 1017 10 16.0934 0 0
3:55 pm 15:55 Cloudy 67 19.3 62 16.4 83 83 NE 12 19 30.06 1018 10 16.0934 0 0
4:15 pm 16:15 Cloudy 68 20.1 62 16.7 81 81 NE 13 20 30.06 1018 10 16.0934 0 0
4:35 pm 16:35 Cloudy 68 20.1 62 16.9 82 82 ENE 15 24 30.06 1018 10 16.0934 0 0
4:55 pm 16:55 Cloudy 68 19.8 62 16.7 82 82 NE 10 17 30.06 1018 10 16.0934 0 0
5:15 pm 17:15 Cloudy 67 19.5 62 16.4 82 82 ENE 12 19 30.06 1018 10 16.0934 0 0
5:35 pm 17:35 Mostly Cloudy 68 20.1 62 16.7 81 81 ENE 10 17 30.06 1018 10 16.0934 0 0
5:55 pm 17:55 Cloudy 67 19.6 62 16.5 82 82 NE 8 13 30.06 1018 10 16.0934 0 0
6:15 pm 18:15 Cloudy 67 19.7 61 16.1 80 80 ENE 8 13 30.06 1018 10 16.0934 0 0
6:35 pm 18:35 Cloudy 68 20 61 16.1 78 78 E 7 11 30.06 1018 10 16.0934 0 0
6:55 pm 18:55 Cloudy 68 20 60 15.6 76 76 ENE 10 17 30.06 1018 10 16.0934 0 0
7:15 pm 19:15 Cloudy 67 19.5 60 15.6 78 78 ENE 9 15 30.09 1019 10 16.0934 0 0
7:35 pm 19:35 Cloudy 67 19.2 60 15.8 81 81 ENE 6 9 30.06 1018 10 16.0934 0 0
7:55 pm 19:55 Cloudy 66 19 61 16.1 83 83 NE 13 20 30.09 1019 10 16.0934 0 0
8:15 pm 20:15 Cloudy 64 18 62 16.5 91 91 NE 9 15 30.09 1019 10 16.0934 0 0
8:35 pm 20:35 Mostly Cloudy 64 17.6 61 16.2 92 92 ENE 7 11 30.09 1019 10 16.0934 0 0
8:55 pm 20:55 Partly Cloudy 63 17.2 61 16.1 93 93 ENE 8 13 30.12 1020 10 16.0934 0 0
9:15 pm 21:15 Partly Cloudy 63 17.2 61 16.1 93 93 ENE 8 13 30.12 1020 10 16.0934 0 0
9:35 pm 21:35 Partly Cloudy 63 17.1 61 16 93 93 ENE 9 15 30.12 1020 10 16.0934 0 0
9:55 pm 21:55 Clear 62 16.7 60 15.7 94 94 E 7 11 30.12 1020 10 16.0934 0 0
10:15 pm 22:15 Partly Cloudy 62 16.5 60 15.6 94 94 E 7 11 30.15 1021 10 16.0934 0 0
10:35 pm 22:35 Partly Cloudy 62 16.5 60 15.6 94 94 E 5 7 30.15 1021 10 16.0934 0 0
10:55 pm 22:55 Mostly Cloudy 61 16.3 60 15.5 95 95 ENE 5 7 30.15 1021 7 11.26538 0 0
11:15 pm 23:15 Cloudy 62 16.9 61 16.1 95 95 ENE 5 7 30.15 1021 7 11.26538 0 0
11:35 pm 23:35 Cloudy with Mist and Fog 63 17.1 61 16.3 95 95 ENE 3 6 30.15 1021 5 8.0467 0 0
11:55 pm 23:55 Cloudy with Mist and Fog 63 17 61 16.1 94 94 E 3 6 30.15 1021 5 8.0467 0 0

Powered by AerisWeather